Regional Weather Roundup
Issued by NWS

Home | Current Version | Previous Version | Text Only | Print | Product List | Glossary On
Versions: 1 2 3 4 5 6 7 8 9 10 11 12 13 14 15 16 17 18 19 20 21 22 23 24 25 26 27 28 29 30 31 32 33 34 35 36 37 38 39 40 41 42 43 44 45 46 47 48 49 50
000
ASUS43 KDMX 270904
RWRIA

WEATHER ROUNDUP FOR IOWA
NATIONAL WEATHER SERVICE DES MOINES IA
  ISSUED BY NWS QUAD CITIES IA IL
300 AM CST TUE JAN 27 2015

NOTE: "FAIR" INDICATES FEW OR NO CLOUDS BELOW 12,000 FEET WITH NO
SIGNIFICANT WEATHER AND/OR OBSTRUCTIONS TO VISIBILITY.

* - THESE STATIONS ARE NOT NWS STATIONS...THUS NOT UNDER NWS
QUALITY CONTROL.  THEY ALSO DO NOT REPORT WEATHER SUCH
AS PRECIPITATION OR FOG.

IAZ001>003-012>014-020>022-031>034-043>046-271000-
   NORTHWEST IOWA

CITY           SKY/WX    TMP DP  RH WIND       PRES   REMARKS
CARROLL *      CLEAR     32  32 100 NW10      30.06S WCI  24
CHEROKEE *     SUNNY     30  30 100 CALM      30.07S
DENNISON *     CLEAR     32  32 100 NE3       30.05S
LE MARS *      CLEAR     30  30 100 CALM      30.08R
ORANGE CITY *  CLEAR     34  30  86 N5        30.06S WCI  30
SHELDON *      CLEAR     28  28 100 CALM      30.05F
SIOUX CITY     CLEAR     30  29  96 NW3       30.07S
SPENCER        CLOUDY    34  30  85 N9        30.06R WCI  27
STORM LAKE *   CLEAR     32  32 100 NW8       30.06S WCI  25
$$

IAZ055>058-069>071-079>083-090>094-271000-
   SOUTHWEST IOWA

CITY           SKY/WX    TMP DP  RH WIND       PRES   REMARKS
ATLANTIC *     CLEAR     28  28 100 CALM      30.07R
AUDUBON *      CLEAR     30  28  93 N3        30.06F
CLARINDA *     CLEAR     28  28 100 CALM      30.10R
COUNCIL BLFS * CLEAR     36  36 100 N3        30.07R
CRESTON *      CLEAR     30  30 100 NW7       30.06R WCI  23
HARLAN *       CLEAR     27  27 100 CALM      30.11R
LAMONI         CLEAR     33  30  88 N8        30.04R WCI  26
RED OAK *      CLEAR     28  28 100 CALM      30.08S
SHENANDOAH *   CLEAR     28  28 100 CALM      30.09S
$$

IAZ047>049-059>061-072>074-084-271000-
   CENTRAL IOWA

CITY           SKY/WX    TMP DP  RH WIND       PRES   REMARKS
AMES           CLEAR     33  28  81 NW7       30.05R WCI  27
ANKENY *       PTCLDY    36  32  87 NW7       30.06R WCI  30
BOONE *        CLEAR     34  32  93 NW9       30.04R WCI  26
CHARITON *     CLOUDY    34  32  93 N8        30.04R WCI  27
DES MOINES     PTCLDY    35  30  82 NW8       30.06R WCI  29
GRINNELL *     SUNNY     31  29  92 NW7       30.02R WCI  24
KNOXVILLE *    CLEAR     34  28  80 NW9       30.03R WCI  26
MARSHALLTOWN   CLEAR     32  29  88 NW10      30.01R WCI  24
NEWTON *       CLEAR     34  30  86 NW8       30.03R WCI  27
PELLA *        CLEAR     33  30  88 NW9       30.05R WCI  26
PERRY *          N/A     29  29  99 NW6       30.06S WCI  23
$$

IAZ004>006-015-016-023>025-035-036-271000-
   NORTH CENTRAL IOWA

CITY           SKY/WX    TMP DP  RH WIND       PRES   REMARKS
ALGONA *       CLEAR     32  32 100 NW7       30.06R WCI  26
CLARION *      CLEAR     32  32 100 NW6       30.05R WCI  26
ESTHERVILLE    CLEAR     30  29  96 NW6       30.05R WCI  24
FORT DODGE *   CLEAR     30  28  93 NW3       30.06R
MASON CITY     CLEAR     30  27  88 NW9       30.04R WCI  22
FOREST CITY *  FAIR      32  30  93 N6        30.04R WCI  26
WEBSTER CITY * CLEAR     32  32 100 NW9       30.03R WCI  24
IOWA FALLS *   FAIR      32  30  93 NW7       30.04R WCI  26
$$

IAZ007>011-017>019-026>030-037>042-050>054-066-271000-
   NORTHEAST IOWA

CITY           SKY/WX    TMP DP  RH WIND       PRES   REMARKS
CEDAR RAPIDS   CLEAR     29  28  96 NW8       29.99R WCI  21
CHARLES CITY * CLOUDY    34  34 100 NW8       30.02R WCI  27
CLINTON *      CLOUDY    28  25  86 N6        30.01R WCI  22
DECORAH *      CLOUDY    32  30  93 NE7       30.00R WCI  26
DUBUQUE        CLOUDY    31  27  85 N14       29.98R WCI  21
MONTICELLO *   CLOUDY    34  34 100 N8        29.99R WCI  27
OELWEIN *      CLOUDY    34  32  93 NW9       30.01R WCI  26
WATERLOO       CLEAR     31  29  92 N13       30.01R WCI  21
$$

IAZ064-065-067-068-078-271000-
   EAST CENTRAL IOWA

CITY           SKY/WX    TMP DP  RH WIND       PRES   REMARKS
DAVENPORT      CLOUDY    34  29  82 N12       29.98R WCI  25
IOWA CITY      CLOUDY    35  31  85 NW10      30.01S WCI  27
MT. PLEASANT * PTCLDY    33  30  89 NW6       30.00S WCI  28
MUSCATINE *    CLOUDY    36  32  87 NW6       30.00S WCI  31
QUAD CITIES    CLOUDY    36  30  79 N9        29.97R WCI  29
$$

IAZ062-063-075>077-085>089-095>099-271000-
   SOUTHEAST IOWA

CITY           SKY/WX    TMP DP  RH WIND       PRES   REMARKS
BURLINGTON     CLOUDY    36  33  89 NW9       29.98S WCI  29
FORT MADISON * CLOUDY    36  34  93 NW6       30.01R WCI  31
KEOKUK *       CLEAR     36  32  87 NW10      29.99S WCI  28
OSKALOOSA *    FAIR      31  29  91 NW7       30.02S WCI  25
OTTUMWA        CLEAR     34  29  82 NW9       30.01R WCI  27
WASHINGTON *   CLEAR     34  34 100 NW9       30.00R WCI  26
$$

ABBREVIATIONS USED IN REMARKS
   TC - TEMPERATURES IN CELSIUS
  WCI - WIND CHILL INDEX
   HX - HEAT INDEX
  VSB - VISIBILITY
$$


USA.gov is the U.S. government's official web portal to all federal, state and local government web resources and services.